date,time,SUV Intensity [MED/Hr],UV Index,Daily total [MED],Since Last [MED]
13/03/2022,00:05:41,-0.001,0.0,0.0,0.0
13/03/2022,00:06:41,0.000,0.0,0.0,0.0
13/03/2022,00:07:42,0.001,0.0,0.0,0.0
13/03/2022,00:08:41,0.001,0.0,0.0,0.0
13/03/2022,00:09:41,0.000,0.0,0.0,0.0
13/03/2022,00:10:41,-0.001,0.0,0.0,0.0
13/03/2022,00:11:41,-0.001,0.0,0.0,0.0
13/03/2022,00:12:41,-0.001,0.0,0.0,0.0
13/03/2022,00:13:42,-0.001,0.0,0.0,0.0
13/03/2022,00:14:50,0.000,0.0,0.0,0.0
13/03/2022,00:15:41,-0.000,0.0,0.0,0.0
13/03/2022,00:16:41,-0.000,0.0,0.0,0.0
13/03/2022,00:17:49,0.001,0.0,0.0,0.0
13/03/2022,00:18:41,0.000,0.0,0.0,0.0
13/03/2022,00:19:42,0.000,0.0,0.0,0.0
13/03/2022,00:20:41,0.001,0.0,0.0,0.0
13/03/2022,00:21:41,0.000,0.0,0.0,0.0
13/03/2022,00:22:42,-0.000,0.0,0.0,0.0
13/03/2022,00:23:41,0.000,0.0,0.0,0.0
13/03/2022,00:24:41,-0.000,0.0,0.0,0.0
13/03/2022,00:25:41,0.000,0.0,0.0,0.0
13/03/2022,00:26:41,-0.000,0.0,0.0,0.0
13/03/2022,00:27:42,0.000,0.0,0.0,0.0
13/03/2022,00:28:41,0.001,0.0,0.0,0.0
13/03/2022,00:29:41,0.000,0.0,0.0,0.0
13/03/2022,00:30:41,0.000,0.0,0.0,0.0
13/03/2022,00:31:41,-0.000,0.0,0.0,0.0
13/03/2022,00:32:41,-0.000,0.0,0.0,0.0
13/03/2022,00:33:41,0.000,0.0,0.0,0.0
13/03/2022,00:34:41,-0.000,0.0,0.0,0.0
13/03/2022,00:35:49,0.001,0.0,0.0,0.0
13/03/2022,00:36:42,0.000,0.0,0.0,0.0
13/03/2022,00:37:43,0.000,0.0,0.0,0.0
13/03/2022,00:38:41,0.000,0.0,0.0,0.0
13/03/2022,00:39:41,0.000,0.0,0.0,0.0
13/03/2022,00:40:41,0.000,0.0,0.0,0.0
13/03/2022,00:41:41,-0.001,0.0,0.0,0.0
13/03/2022,00:42:42,-0.000,0.0,0.0,0.0
13/03/2022,00:43:41,-0.001,0.0,0.0,0.0
13/03/2022,00:44:41,0.000,0.0,0.0,0.0
13/03/2022,00:45:41,0.000,0.0,0.0,0.0
13/03/2022,00:46:41,0.000,0.0,0.0,0.0
13/03/2022,00:47:42,0.001,0.0,0.0,0.0
13/03/2022,00:48:49,-0.000,0.0,0.0,0.0
13/03/2022,00:49:41,0.000,0.0,0.0,0.0
13/03/2022,00:50:41,0.001,0.0,0.0,0.0
13/03/2022,00:51:41,0.000,0.0,0.0,0.0
13/03/2022,00:52:41,-0.001,0.0,0.0,0.0
13/03/2022,00:53:41,0.001,0.0,0.0,0.0
13/03/2022,00:54:41,0.000,0.0,0.0,0.0
13/03/2022,00:55:41,0.000,0.0,0.0,0.0
13/03/2022,00:56:41,-0.001,0.0,0.0,0.0
13/03/2022,00:57:41,-0.000,0.0,0.0,0.0
13/03/2022,00:58:41,-0.001,0.0,0.0,0.0
13/03/2022,00:59:41,0.000,0.0,0.0,0.0
13/03/2022,01:00:41,0.000,0.0,0.0,0.0
13/03/2022,01:01:41,0.000,0.0,0.0,0.0
13/03/2022,01:02:41,0.000,0.0,0.0,0.0
13/03/2022,01:03:41,0.000,0.0,0.0,0.0
13/03/2022,01:04:42,-0.000,0.0,0.0,0.0
13/03/2022,01:05:41,-0.001,0.0,0.0,0.0
13/03/2022,01:06:42,0.000,0.0,0.0,0.0
13/03/2022,01:07:42,-0.001,0.0,0.0,0.0
13/03/2022,01:08:41,0.001,0.0,0.0,0.0
13/03/2022,01:09:41,0.000,0.0,0.0,0.0
13/03/2022,01:10:41,-0.000,0.0,0.0,0.0
13/03/2022,01:11:41,0.000,0.0,0.0,0.0
13/03/2022,01:12:41,0.000,0.0,0.0,0.0
13/03/2022,01:13:41,0.000,0.0,0.0,0.0
13/03/2022,01:14:42,-0.002,0.0,0.0,0.0
13/03/2022,01:15:50,-0.001,0.0,0.0,0.0
13/03/2022,01:16:42,0.000,0.0,0.0,0.0
13/03/2022,01:17:41,0.000,0.0,0.0,0.0
13/03/2022,01:18:41,0.000,0.0,0.0,0.0
13/03/2022,01:19:42,0.001,0.0,0.0,0.0
13/03/2022,01:20:42,0.000,0.0,0.0,0.0
13/03/2022,01:21:41,0.000,0.0,0.0,0.0
13/03/2022,01:22:41,0.000,0.0,0.0,0.0
13/03/2022,01:23:50,0.000,0.0,0.0,0.0
13/03/2022,01:24:42,0.000,0.0,0.0,0.0
13/03/2022,01:25:51,0.000,0.0,0.0,0.0
13/03/2022,01:26:36,-0.000,0.0,0.0,0.0
13/03/2022,01:27:41,-0.001,0.0,0.0,0.0
13/03/2022,01:28:41,-0.001,0.0,0.0,0.0
13/03/2022,01:29:41,-0.000,0.0,0.0,0.0
13/03/2022,01:30:41,0.000,0.0,0.0,0.0
13/03/2022,01:31:41,0.000,0.0,0.0,0.0
13/03/2022,01:32:42,0.000,0.0,0.0,0.0
13/03/2022,01:33:42,0.000,0.0,0.0,0.0
13/03/2022,01:34:41,0.000,0.0,0.0,0.0
13/03/2022,01:35:41,-0.001,0.0,0.0,0.0
13/03/2022,01:36:49,0.000,0.0,0.0,0.0
13/03/2022,01:37:41,0.000,0.0,0.0,0.0
13/03/2022,01:38:42,0.000,0.0,0.0,0.0
13/03/2022,01:39:49,0.000,0.0,0.0,0.0
13/03/2022,01:40:41,0.000,0.0,0.0,0.0
13/03/2022,01:41:42,0.000,0.0,0.0,0.0
13/03/2022,01:42:41,0.000,0.0,0.0,0.0
13/03/2022,01:43:41,0.000,0.0,0.0,0.0
13/03/2022,01:44:41,0.000,0.0,0.0,0.0
13/03/2022,01:45:41,0.000,0.0,0.0,0.0
13/03/2022,01:46:41,-0.000,0.0,0.0,0.0
13/03/2022,01:47:41,0.000,0.0,0.0,0.0
13/03/2022,01:48:42,-0.000,0.0,0.0,0.0
13/03/2022,01:49:41,0.000,0.0,0.0,0.0
13/03/2022,01:50:41,0.000,0.0,0.0,0.0
13/03/2022,01:51:41,0.001,0.0,0.0,0.0
13/03/2022,01:52:41,0.000,0.0,0.0,0.0
13/03/2022,01:53:41,0.000,0.0,0.0,0.0
13/03/2022,01:54:42,0.000,0.0,0.0,0.0
13/03/2022,01:55:42,0.001,0.0,0.0,0.0
13/03/2022,01:56:41,0.000,0.0,0.0,0.0
13/03/2022,01:57:49,0.001,0.0,0.0,0.0
13/03/2022,01:58:41,0.000,0.0,0.0,0.0
13/03/2022,01:59:41,0.001,0.0,0.0,0.0
13/03/2022,02:00:49,0.001,0.0,0.0,0.0
13/03/2022,02:01:42,0.000,0.0,0.0,0.0
13/03/2022,02:02:41,0.001,0.0,0.0,0.0
13/03/2022,02:03:41,0.001,0.0,0.0,0.0
13/03/2022,02:04:42,0.001,0.0,0.0,0.0
13/03/2022,02:05:41,0.000,0.0,0.0,0.0
13/03/2022,02:06:41,0.000,0.0,0.0,0.0
13/03/2022,02:07:41,-0.000,0.0,0.0,0.0
13/03/2022,02:08:42,0.000,0.0,0.0,0.0
13/03/2022,02:09:43,-0.000,0.0,0.0,0.0
13/03/2022,02:10:50,0.000,0.0,0.0,0.0
13/03/2022,02:11:41,0.000,0.0,0.0,0.0
13/03/2022,02:12:41,0.001,0.0,0.0,0.0
13/03/2022,02:13:41,0.000,0.0,0.0,0.0
13/03/2022,02:14:42,0.000,0.0,0.0,0.0
13/03/2022,02:15:42,0.001,0.0,0.0,0.0
13/03/2022,02:16:42,0.000,0.0,0.0,0.0
13/03/2022,02:17:42,0.000,0.0,0.0,0.0
13/03/2022,02:18:42,0.000,0.0,0.0,0.0
13/03/2022,02:19:42,0.000,0.0,0.0,0.0
13/03/2022,02:20:42,0.000,0.0,0.0,0.0
13/03/2022,02:21:50,0.001,0.0,0.0,0.0
13/03/2022,02:22:42,0.001,0.0,0.0,0.0
13/03/2022,02:23:41,0.001,0.0,0.0,0.0
13/03/2022,02:24:41,0.000,0.0,0.0,0.0
13/03/2022,02:25:42,0.001,0.0,0.0,0.0
13/03/2022,02:26:41,0.000,0.0,0.0,0.0
13/03/2022,02:27:41,0.001,0.0,0.0,0.0
13/03/2022,02:28:42,0.001,0.0,0.0,0.0
13/03/2022,02:29:41,0.000,0.0,0.0,0.0
13/03/2022,02:30:41,0.001,0.0,0.0,0.0
13/03/2022,02:31:50,0.001,0.0,0.0,0.0
13/03/2022,02:32:41,0.001,0.0,0.0,0.0
13/03/2022,02:33:41,-0.000,0.0,0.0,0.0
13/03/2022,02:34:50,0.001,0.0,0.0,0.0
13/03/2022,02:35:41,0.001,0.0,0.0,0.0
13/03/2022,02:36:41,0.001,0.0,0.0,0.0
13/03/2022,02:37:43,0.001,0.0,0.0,0.0
13/03/2022,02:38:42,0.001,0.0,0.0,0.0
13/03/2022,02:39:41,0.001,0.0,0.0,0.0
13/03/2022,02:40:41,0.001,0.0,0.0,0.0
13/03/2022,02:41:42,0.001,0.0,0.0,0.0
13/03/2022,02:42:41,0.001,0.0,0.0,0.0
13/03/2022,02:43:41,0.001,0.0,0.0,0.0
13/03/2022,02:44:49,0.001,0.0,0.0,0.0
13/03/2022,02:45:42,0.001,0.0,0.0,0.0
13/03/2022,02:46:42,0.001,0.0,0.0,0.0
13/03/2022,02:47:41,0.001,0.0,0.0,0.0
13/03/2022,02:48:42,0.001,0.0,0.0,0.0
13/03/2022,02:49:42,0.000,0.0,0.0,0.0
13/03/2022,02:50:41,0.001,0.0,0.0,0.0
13/03/2022,02:51:41,0.001,0.0,0.0,0.0
13/03/2022,02:52:41,0.001,0.0,0.0,0.0
13/03/2022,02:53:42,0.001,0.0,0.0,0.0
13/03/2022,02:54:41,0.001,0.0,0.0,0.0
13/03/2022,02:55:41,0.001,0.0,0.0,0.0
13/03/2022,02:56:42,0.001,0.0,0.0,0.0
13/03/2022,02:57:42,0.001,0.0,0.0,0.0
13/03/2022,02:58:50,0.001,0.0,0.0,0.0
13/03/2022,02:59:41,0.001,0.0,0.0,0.0
13/03/2022,03:00:42,0.001,0.0,0.0,0.0
13/03/2022,03:01:42,0.001,0.0,0.0,0.0
13/03/2022,03:02:41,0.001,0.0,0.0,0.0
13/03/2022,03:03:41,0.001,0.0,0.0,0.0
13/03/2022,03:04:42,0.001,0.0,0.0,0.0
13/03/2022,03:05:42,0.000,0.0,0.0,0.0
13/03/2022,03:06:42,0.001,0.0,0.0,0.0
13/03/2022,03:07:42,0.001,0.0,0.0,0.0
13/03/2022,03:08:42,0.001,0.0,0.0,0.0
13/03/2022,03:09:41,0.001,0.0,0.0,0.0
13/03/2022,03:10:41,0.001,0.0,0.0,0.0
13/03/2022,03:11:42,0.001,0.0,0.0,0.0
13/03/2022,03:12:42,0.001,0.0,0.0,0.0
13/03/2022,03:13:41,0.001,0.0,0.0,0.0
13/03/2022,03:14:42,0.001,0.0,0.0,0.0
13/03/2022,03:16:34,0.001,0.0,0.0,0.0
13/03/2022,03:17:41,0.001,0.0,0.0,0.0
13/03/2022,03:18:41,0.001,0.0,0.0,0.0
13/03/2022,03:19:49,0.000,0.0,0.0,0.0
13/03/2022,03:20:41,0.001,0.0,0.0,0.0
13/03/2022,03:21:42,0.001,0.0,0.0,0.0
13/03/2022,03:22:50,0.001,0.0,0.0,0.0
13/03/2022,03:23:43,0.001,0.0,0.0,0.0
13/03/2022,03:24:41,0.001,0.0,0.0,0.0
13/03/2022,03:25:42,-0.000,0.0,0.0,0.0
13/03/2022,03:26:39,0.001,0.0,0.0,0.0
13/03/2022,03:27:41,0.001,0.0,0.0,0.0
13/03/2022,03:28:41,0.001,0.0,0.0,0.0
13/03/2022,03:29:42,0.001,0.0,0.0,0.0
13/03/2022,03:30:42,0.001,0.0,0.0,0.0
13/03/2022,03:31:41,-0.000,0.0,0.0,0.0
13/03/2022,03:32:42,0.001,0.0,0.0,0.0
13/03/2022,03:33:42,0.000,0.0,0.0,0.0
13/03/2022,03:34:41,-0.000,0.0,0.0,0.0
13/03/2022,03:35:41,0.001,0.0,0.0,0.0
13/03/2022,03:36:42,0.001,0.0,0.0,0.0
13/03/2022,03:37:43,0.000,0.0,0.0,0.0
13/03/2022,03:38:42,0.001,0.0,0.0,0.0
13/03/2022,03:39:42,0.001,0.0,0.0,0.0
13/03/2022,03:40:42,0.001,0.0,0.0,0.0
13/03/2022,03:41:41,0.001,0.0,0.0,0.0
13/03/2022,03:42:42,0.001,0.0,0.0,0.0
13/03/2022,03:43:53,0.001,0.0,0.0,0.0
13/03/2022,03:45:44,-0.000,0.0,0.0,0.0
13/03/2022,03:46:41,0.001,0.0,0.0,0.0
13/03/2022,03:47:41,0.001,0.0,0.0,0.0
13/03/2022,03:48:41,0.001,0.0,0.0,0.0
13/03/2022,03:49:42,-0.000,0.0,0.0,0.0
13/03/2022,03:50:41,0.001,0.0,0.0,0.0
13/03/2022,03:51:41,0.001,0.0,0.0,0.0
13/03/2022,03:52:42,0.001,0.0,0.0,0.0
13/03/2022,03:53:41,0.001,0.0,0.0,0.0
13/03/2022,03:54:42,0.001,0.0,0.0,0.0
13/03/2022,03:55:42,0.001,0.0,0.0,0.0
13/03/2022,03:56:41,0.001,0.0,0.0,0.0
13/03/2022,03:57:50,0.001,0.0,0.0,0.0
13/03/2022,03:58:41,0.001,0.0,0.0,0.0
13/03/2022,03:59:41,0.001,0.0,0.0,0.0
13/03/2022,04:00:50,0.001,0.0,0.0,0.0
13/03/2022,04:01:42,0.001,0.0,0.0,0.0
13/03/2022,04:02:42,0.001,0.0,0.0,0.0
13/03/2022,04:03:42,0.001,0.0,0.0,0.0
13/03/2022,04:04:42,0.001,0.0,0.0,0.0
13/03/2022,04:05:41,0.001,0.0,0.0,0.0
13/03/2022,04:06:42,0.001,0.0,0.0,0.0
13/03/2022,04:07:42,0.001,0.0,0.0,0.0
13/03/2022,04:08:42,0.001,0.0,0.0,0.0
13/03/2022,04:09:42,0.001,0.0,0.0,0.0
13/03/2022,04:10:41,0.001,0.0,0.0,0.0
13/03/2022,04:11:41,0.001,0.0,0.0,0.0
13/03/2022,04:12:42,0.001,0.0,0.0,0.0
13/03/2022,04:13:50,0.001,0.0,0.0,0.0
13/03/2022,04:14:50,0.001,0.0,0.0,0.0
13/03/2022,04:15:42,0.001,0.0,0.0,0.0
13/03/2022,04:16:41,-0.000,0.0,0.0,0.0
13/03/2022,04:17:42,0.001,0.0,0.0,0.0
13/03/2022,04:18:42,0.001,0.0,0.0,0.0
13/03/2022,04:19:41,0.001,0.0,0.0,0.0
13/03/2022,04:20:42,0.001,0.0,0.0,0.0
13/03/2022,04:21:42,0.001,0.0,0.0,0.0
13/03/2022,04:22:41,0.001,0.0,0.0,0.0
13/03/2022,04:23:42,0.001,0.0,0.0,0.0
13/03/2022,04:24:42,0.001,0.0,0.0,0.0
13/03/2022,04:25:42,0.001,0.0,0.0,0.0
13/03/2022,04:26:42,0.001,0.0,0.0,0.0
13/03/2022,04:27:42,0.001,0.0,0.0,0.0
13/03/2022,04:28:41,0.001,0.0,0.0,0.0
13/03/2022,04:29:42,0.001,0.0,0.0,0.0
13/03/2022,04:30:42,0.001,0.0,0.0,0.0
13/03/2022,04:31:50,0.001,0.0,0.0,0.0
13/03/2022,04:32:42,0.001,0.0,0.0,0.0
13/03/2022,04:33:42,0.001,0.0,0.0,0.0
13/03/2022,04:34:41,0.000,0.0,0.0,0.0
13/03/2022,04:35:50,0.001,0.0,0.0,0.0
13/03/2022,04:36:42,0.001,0.0,0.0,0.0
13/03/2022,04:37:50,0.001,0.0,0.0,0.0
13/03/2022,04:38:42,0.001,0.0,0.0,0.0
13/03/2022,04:39:41,0.001,0.0,0.0,0.0
13/03/2022,04:40:42,0.001,0.0,0.0,0.0
13/03/2022,04:41:42,0.001,0.0,0.0,0.0
13/03/2022,04:42:42,0.001,0.0,0.0,0.0
13/03/2022,04:43:42,0.001,0.0,0.0,0.0
13/03/2022,04:44:42,0.001,0.0,0.0,0.0
13/03/2022,04:45:42,0.001,0.0,0.0,0.0
13/03/2022,04:46:41,0.001,0.0,0.0,0.0
13/03/2022,04:47:42,0.001,0.0,0.0,0.0
13/03/2022,04:48:50,0.001,0.0,0.0,0.0
13/03/2022,04:49:40,0.001,0.0,0.0,0.0
13/03/2022,04:50:42,0.001,0.0,0.0,0.0
13/03/2022,04:51:41,0.001,0.0,0.0,0.0
13/03/2022,04:52:41,0.001,0.0,0.0,0.0
13/03/2022,04:53:42,0.001,0.0,0.0,0.0
13/03/2022,04:54:42,0.001,0.0,0.0,0.0
13/03/2022,04:55:41,0.001,0.0,0.0,0.0
13/03/2022,04:56:41,0.001,0.0,0.0,0.0
13/03/2022,04:57:42,0.001,0.0,0.0,0.0
13/03/2022,04:58:50,0.001,0.0,0.0,0.0
13/03/2022,04:59:41,0.001,0.0,0.0,0.0
13/03/2022,05:00:41,0.001,0.0,0.0,0.0
13/03/2022,05:01:43,0.001,0.0,0.0,0.0
13/03/2022,05:02:42,0.001,0.0,0.0,0.0
13/03/2022,05:03:42,0.001,0.0,0.0,0.0
13/03/2022,05:04:41,0.001,0.0,0.0,0.0
13/03/2022,05:05:42,0.001,0.0,0.0,0.0
13/03/2022,05:06:42,0.001,0.0,0.0,0.0
13/03/2022,05:07:42,0.001,0.0,0.0,0.0
13/03/2022,05:08:41,0.001,0.0,0.0,0.0
13/03/2022,05:09:42,0.001,0.0,0.0,0.0
13/03/2022,05:10:42,0.001,0.0,0.0,0.0
13/03/2022,05:11:41,0.001,0.0,0.0,0.0
13/03/2022,05:12:51,0.001,0.0,0.0,0.0
13/03/2022,05:13:40,0.001,0.0,0.0,0.0
13/03/2022,05:14:42,0.001,0.0,0.0,0.0
13/03/2022,05:15:50,0.001,0.0,0.0,0.0
13/03/2022,05:16:42,0.001,0.0,0.0,0.0
13/03/2022,05:17:42,0.001,0.0,0.0,0.0
13/03/2022,05:18:41,0.001,0.0,0.0,0.0
13/03/2022,05:19:42,0.001,0.0,0.0,0.0
13/03/2022,05:20:42,0.001,0.0,0.0,0.0
13/03/2022,05:21:41,0.001,0.0,0.0,0.0
13/03/2022,05:22:42,0.001,0.0,0.0,0.0
13/03/2022,05:23:42,0.001,0.0,0.0,0.0
13/03/2022,05:24:42,0.001,0.0,0.0,0.0
13/03/2022,05:25:50,0.001,0.0,0.0,0.0
13/03/2022,05:26:42,0.001,0.0,0.0,0.0
13/03/2022,05:27:58,0.001,0.0,0.0,0.0
13/03/2022,05:29:42,0.001,0.0,0.0,0.0
13/03/2022,05:30:41,0.001,0.0,0.0,0.0
13/03/2022,05:31:42,0.001,0.0,0.0,0.0
13/03/2022,05:32:50,0.001,0.0,0.0,0.0
13/03/2022,05:33:42,0.001,0.0,0.0,0.0
13/03/2022,05:34:42,0.001,0.0,0.0,0.0
13/03/2022,05:35:42,0.001,0.0,0.0,0.0
13/03/2022,05:36:50,-0.000,0.0,0.0,0.0
13/03/2022,05:37:42,0.001,0.0,0.0,0.0
13/03/2022,05:38:41,0.001,0.0,0.0,0.0
13/03/2022,05:39:44,-0.000,0.0,0.0,0.0
13/03/2022,05:40:42,0.001,0.0,0.0,0.0
13/03/2022,05:41:41,0.001,0.0,0.0,0.0
13/03/2022,05:42:42,0.001,0.0,0.0,0.0
13/03/2022,05:43:42,-0.000,0.0,0.0,0.0
13/03/2022,05:44:42,0.001,0.0,0.0,0.0
13/03/2022,05:45:41,0.001,0.0,0.0,0.0
13/03/2022,05:46:42,0.001,0.0,0.0,0.0
13/03/2022,05:47:42,0.001,0.0,0.0,0.0
13/03/2022,05:48:42,0.001,0.0,0.0,0.0
13/03/2022,05:49:42,0.001,0.0,0.0,0.0
13/03/2022,05:50:50,0.001,0.0,0.0,0.0
13/03/2022,05:51:42,0.001,0.0,0.0,0.0
13/03/2022,05:52:42,0.001,0.0,0.0,0.0
13/03/2022,05:53:42,0.001,0.0,0.0,0.0
13/03/2022,05:54:41,0.001,0.0,0.0,0.0
13/03/2022,05:55:42,0.001,0.0,0.0,0.0
13/03/2022,05:56:42,0.001,0.0,0.0,0.0
13/03/2022,05:57:42,0.001,0.0,0.0,0.0
13/03/2022,05:58:42,0.001,0.0,0.0,0.0
13/03/2022,05:59:54,0.001,0.0,0.0,0.0
13/03/2022,06:01:51,0.001,0.0,0.0,0.0
13/03/2022,06:02:41,0.001,0.0,0.0,0.0
13/03/2022,06:03:50,0.001,0.0,0.0,0.0
13/03/2022,06:04:42,0.001,0.0,0.0,0.0
13/03/2022,06:05:41,0.001,0.0,0.0,0.0
13/03/2022,06:06:42,0.001,0.0,0.0,0.0
13/03/2022,06:07:42,0.001,0.0,0.0,0.0
13/03/2022,06:08:41,0.001,0.0,0.0,0.0
13/03/2022,06:09:42,0.001,0.0,0.0,0.0
13/03/2022,06:10:42,0.001,0.0,0.0,0.0
13/03/2022,06:11:42,0.001,0.0,0.0,0.0
13/03/2022,06:12:41,0.001,0.0,0.0,0.0
13/03/2022,06:13:42,0.001,0.0,0.0,0.0
13/03/2022,06:14:44,0.001,0.0,0.0,0.0
13/03/2022,06:15:41,0.001,0.0,0.0,0.0
13/03/2022,06:16:42,0.001,0.0,0.0,0.0
13/03/2022,06:17:50,0.001,0.0,0.0,0.0
13/03/2022,06:18:42,0.001,0.0,0.0,0.0
13/03/2022,06:19:41,0.001,0.0,0.0,0.0
13/03/2022,06:20:41,0.001,0.0,0.0,0.0
13/03/2022,06:21:41,0.001,0.0,0.0,0.0
13/03/2022,06:22:42,0.001,0.0,0.0,0.0
13/03/2022,06:23:42,0.001,0.0,0.0,0.0
13/03/2022,06:24:42,0.001,0.0,0.0,0.0
13/03/2022,06:25:42,0.002,0.0,0.0,0.0
13/03/2022,06:26:42,0.002,0.0,0.0,0.0
13/03/2022,06:27:50,0.002,0.0,0.0,0.0
13/03/2022,06:28:41,0.002,0.0,0.0,0.0
13/03/2022,06:29:42,0.001,0.0,0.0,0.0
13/03/2022,06:30:43,0.003,0.0,0.0,0.0
13/03/2022,06:31:42,0.003,0.0,0.0,0.0
13/03/2022,06:32:42,0.003,0.0,0.0,0.0
13/03/2022,06:33:35,0.002,0.0,0.0,0.0
13/03/2022,06:34:43,0.002,0.0,0.0,0.0
13/03/2022,06:35:42,0.002,0.0,0.0,0.0
13/03/2022,06:36:42,0.003,0.0,0.0,0.0
13/03/2022,06:37:41,0.003,0.0,0.0,0.0
13/03/2022,06:38:50,0.003,0.0,0.0,0.0
13/03/2022,06:39:42,0.003,0.0,0.0,0.0
13/03/2022,06:40:42,0.004,0.0,0.0,0.0
13/03/2022,06:41:41,0.003,0.0,0.0,0.0
13/03/2022,06:42:42,0.004,0.0,0.0,0.0
13/03/2022,06:43:42,0.003,0.0,0.0,0.0
13/03/2022,06:44:44,0.004,0.0,0.0,0.0
13/03/2022,06:45:41,0.005,0.0,0.0,0.0
13/03/2022,06:46:42,0.005,0.0,0.0,0.0
13/03/2022,06:47:42,0.004,0.0,0.0,0.0
13/03/2022,06:48:50,0.004,0.0,0.0,0.0
13/03/2022,06:49:42,0.004,0.0,0.0,0.0
13/03/2022,06:50:44,0.003,0.0,0.0,0.0
13/03/2022,06:51:41,0.005,0.0,0.0,0.0
13/03/2022,06:52:42,0.005,0.0,0.0,0.0
13/03/2022,06:53:42,0.005,0.0,0.0,0.0
13/03/2022,06:54:41,0.004,0.0,0.0,0.0
13/03/2022,06:55:42,0.004,0.0,0.0,0.0
13/03/2022,06:56:42,0.003,0.0,0.0,0.0
13/03/2022,06:57:42,0.005,0.0,0.0,0.0
13/03/2022,06:58:42,0.005,0.0,0.0,0.0
13/03/2022,06:59:42,0.006,0.0,0.0,0.0
13/03/2022,07:00:42,0.010,0.0,0.0,0.0
13/03/2022,07:01:41,0.010,0.0,0.0,0.0
13/03/2022,07:03:34,0.011,0.0,0.001,0.001
13/03/2022,07:04:42,0.010,0.0,0.001,0.0
13/03/2022,07:05:42,0.012,0.0,0.001,0.0
13/03/2022,07:06:42,0.013,0.0,0.001,0.0
13/03/2022,07:07:42,0.014,0.0,0.002,0.001
13/03/2022,07:08:42,0.016,0.0,0.002,0.0
13/03/2022,07:09:42,0.017,0.0,0.002,0.0
13/03/2022,07:10:42,0.016,0.0,0.002,0.0
13/03/2022,07:12:44,0.018,0.0,0.003,0.001
13/03/2022,07:13:41,0.017,0.0,0.003,0.0
13/03/2022,07:14:41,0.015,0.0,0.003,0.0
13/03/2022,07:15:42,0.015,0.0,0.004,0.001
13/03/2022,07:16:42,0.016,0.0,0.004,0.0
13/03/2022,07:17:42,0.019,0.0,0.004,0.0
13/03/2022,07:18:42,0.018,0.0,0.005,0.001
13/03/2022,07:19:42,0.020,0.0,0.005,0.0
13/03/2022,07:20:42,0.022,0.0,0.005,0.0
13/03/2022,07:21:41,0.025,0.0,0.006,0.001
13/03/2022,07:22:42,0.026,0.0,0.006,0.0
13/03/2022,07:24:34,0.025,0.0,0.007,0.001
13/03/2022,07:25:42,0.025,0.0,0.007,0.0
13/03/2022,07:26:50,0.026,0.0,0.008,0.001
13/03/2022,07:27:42,0.025,0.0,0.008,0.0
13/03/2022,07:28:42,0.028,0.0,0.009,0.001
13/03/2022,07:29:42,0.029,0.0,0.009,0.0
13/03/2022,07:30:42,0.029,0.0,0.01,0.001
13/03/2022,07:31:42,0.029,0.0,0.01,0.0
13/03/2022,07:32:42,0.028,0.0,0.011,0.001
13/03/2022,07:33:42,0.028,0.0,0.011,0.0
13/03/2022,07:34:42,0.030,0.0,0.011,0.0
13/03/2022,07:35:42,0.030,0.0,0.012,0.001
13/03/2022,07:36:50,0.032,0.0,0.013,0.001
13/03/2022,07:37:42,0.036,0.0,0.013,0.0
13/03/2022,07:38:42,0.037,0.0,0.014,0.001
13/03/2022,07:39:42,0.038,0.0,0.014,0.0
13/03/2022,07:40:42,0.040,0.0,0.015,0.001
13/03/2022,07:41:42,0.041,0.0,0.016,0.001
13/03/2022,07:42:41,0.043,0.0,0.016,0.0
13/03/2022,07:43:42,0.042,0.0,0.017,0.001
13/03/2022,07:44:50,0.042,0.0,0.018,0.001
13/03/2022,07:45:42,0.042,0.0,0.018,0.0
13/03/2022,07:47:43,0.043,0.0,0.02,0.002
13/03/2022,07:48:42,0.040,0.0,0.02,0.0
13/03/2022,07:49:42,0.038,0.0,0.021,0.001
13/03/2022,07:50:42,0.038,0.0,0.022,0.001
13/03/2022,07:51:42,0.042,0.0,0.022,0.0
13/03/2022,07:52:42,0.048,0.0,0.023,0.001
13/03/2022,07:53:42,0.051,0.0,0.024,0.001
13/03/2022,07:54:51,0.054,0.0,0.025,0.001
13/03/2022,07:55:42,0.057,0.0,0.026,0.001
13/03/2022,07:56:42,0.060,0.0,0.027,0.001
13/03/2022,07:57:50,0.062,0.0,0.028,0.001
13/03/2022,07:58:42,0.066,0.0,0.029,0.001
13/03/2022,07:59:42,0.067,0.0,0.03,0.001
13/03/2022,08:00:50,0.066,0.0,0.031,0.001
13/03/2022,08:01:42,0.069,0.0,0.032,0.001
13/03/2022,08:02:42,0.071,0.0,0.033,0.001
13/03/2022,08:03:42,0.071,0.0,0.034,0.001
13/03/2022,08:04:42,0.072,0.0,0.036,0.002
13/03/2022,08:05:42,0.073,0.0,0.037,0.001
13/03/2022,08:06:44,0.074,0.0,0.038,0.001
13/03/2022,08:07:42,0.075,0.0,0.039,0.001
13/03/2022,08:08:50,0.078,0.0,0.041,0.002
13/03/2022,08:09:42,0.081,0.0,0.042,0.001
13/03/2022,08:10:42,0.083,0.0,0.043,0.001
13/03/2022,08:11:51,0.086,0.0,0.045,0.002
13/03/2022,08:12:42,0.085,0.0,0.046,0.001
13/03/2022,08:13:42,0.086,0.0,0.048,0.002
13/03/2022,08:14:42,0.087,0.0,0.049,0.001
13/03/2022,08:15:42,0.090,0.0,0.051,0.002
13/03/2022,08:16:43,0.092,0.0,0.052,0.001
13/03/2022,08:17:42,0.094,0.0,0.054,0.002
13/03/2022,08:18:42,0.093,0.0,0.055,0.001
13/03/2022,08:19:42,0.098,0.0,0.057,0.002
13/03/2022,08:20:42,0.096,0.0,0.058,0.001
13/03/2022,08:21:43,0.098,0.0,0.06,0.002
13/03/2022,08:22:42,0.099,0.0,0.062,0.002
13/03/2022,08:23:42,0.101,0.0,0.063,0.001
13/03/2022,08:24:42,0.101,0.0,0.065,0.002
13/03/2022,08:25:42,0.101,0.0,0.067,0.002
13/03/2022,08:26:42,0.102,0.0,0.068,0.001
13/03/2022,08:27:42,0.102,0.0,0.07,0.002
13/03/2022,08:28:43,0.102,0.0,0.072,0.002
13/03/2022,08:29:42,0.106,0.0,0.074,0.002
13/03/2022,08:30:42,0.108,0.0,0.075,0.001
13/03/2022,08:31:42,0.115,0.0,0.077,0.002
13/03/2022,08:32:50,0.120,0.0,0.079,0.002
13/03/2022,08:33:42,0.125,0.0,0.081,0.002
13/03/2022,08:34:42,0.115,0.0,0.083,0.002
13/03/2022,08:35:50,0.111,0.0,0.085,0.002
13/03/2022,08:36:42,0.119,0.0,0.087,0.002
13/03/2022,08:37:42,0.110,0.0,0.089,0.002
13/03/2022,08:38:42,0.123,0.0,0.091,0.002
13/03/2022,08:39:42,0.129,0.0,0.093,0.002
13/03/2022,08:40:42,0.126,0.0,0.095,0.002
13/03/2022,08:41:42,0.128,0.0,0.097,0.002
13/03/2022,08:42:50,0.129,0.0,0.099,0.002
13/03/2022,08:43:42,0.137,0.0,0.101,0.002
13/03/2022,08:44:42,0.151,0.0,0.104,0.003
13/03/2022,08:45:51,0.154,0.0,0.107,0.003
13/03/2022,08:46:42,0.158,0.0,0.109,0.002
13/03/2022,08:47:42,0.161,0.0,0.112,0.003
13/03/2022,08:48:43,0.151,0.0,0.114,0.002
13/03/2022,08:49:42,0.157,0.0,0.117,0.003
13/03/2022,08:50:42,0.163,0.0,0.119,0.002
13/03/2022,08:51:42,0.149,0.0,0.122,0.003
13/03/2022,08:52:42,0.162,0.0,0.125,0.003
13/03/2022,08:53:43,0.165,0.0,0.127,0.002
13/03/2022,08:54:42,0.180,0.0,0.13,0.003
13/03/2022,08:55:42,0.183,0.0,0.133,0.003
13/03/2022,08:56:42,0.186,0.0,0.136,0.003
13/03/2022,08:57:43,0.189,0.0,0.139,0.003
13/03/2022,08:58:42,0.192,0.0,0.142,0.003
13/03/2022,08:59:42,0.193,0.0,0.146,0.004
13/03/2022,09:00:42,0.197,0.0,0.149,0.003
13/03/2022,09:01:42,0.198,0.0,0.152,0.003
13/03/2022,09:02:43,0.202,0.0,0.156,0.004
13/03/2022,09:03:51,0.205,0.0,0.159,0.003
13/03/2022,09:04:42,0.208,0.0,0.162,0.003
13/03/2022,09:05:42,0.212,0.0,0.166,0.004
13/03/2022,09:06:50,0.213,0.0,0.17,0.004
13/03/2022,09:07:42,0.217,0.0,0.173,0.003
13/03/2022,09:08:42,0.220,1.0,0.177,0.004
13/03/2022,09:09:50,0.206,0.0,0.18,0.003
13/03/2022,09:10:42,0.218,1.0,0.183,0.003
13/03/2022,09:11:44,0.191,0.0,0.187,0.004
13/03/2022,09:12:42,0.223,1.0,0.19,0.003
13/03/2022,09:13:42,0.190,0.0,0.194,0.004
13/03/2022,09:14:42,0.171,0.0,0.197,0.003
13/03/2022,09:15:43,0.158,0.0,0.2,0.003
13/03/2022,09:16:43,0.139,0.0,0.202,0.002
13/03/2022,09:17:42,0.138,0.0,0.204,0.002
13/03/2022,09:18:42,0.116,0.0,0.206,0.002
13/03/2022,09:19:50,0.122,0.0,0.209,0.003
13/03/2022,09:20:50,0.143,0.0,0.211,0.002
13/03/2022,09:21:43,0.144,0.0,0.213,0.002
13/03/2022,09:22:42,0.155,0.0,0.215,0.002
13/03/2022,09:23:42,0.153,0.0,0.218,0.003
13/03/2022,09:24:42,0.165,0.0,0.221,0.003
13/03/2022,09:25:42,0.190,0.0,0.224,0.003
13/03/2022,09:26:42,0.189,0.0,0.227,0.003
13/03/2022,09:27:42,0.194,0.0,0.23,0.003
13/03/2022,09:28:42,0.214,0.0,0.233,0.003
13/03/2022,09:29:43,0.222,1.0,0.237,0.004
13/03/2022,09:30:51,0.227,1.0,0.241,0.004
13/03/2022,09:31:41,0.227,1.0,0.244,0.003
13/03/2022,09:32:42,0.281,1.0,0.249,0.005
13/03/2022,09:33:50,0.301,1.0,0.254,0.005
13/03/2022,09:34:42,0.299,1.0,0.258,0.004
13/03/2022,09:35:44,0.302,1.0,0.263,0.005
13/03/2022,09:36:51,0.310,1.0,0.269,0.006
13/03/2022,09:37:41,0.309,1.0,0.273,0.004
13/03/2022,09:38:42,0.305,1.0,0.278,0.005
13/03/2022,09:39:42,0.261,1.0,0.283,0.005
13/03/2022,09:40:42,0.306,1.0,0.288,0.005
13/03/2022,09:41:42,0.326,1.0,0.293,0.005
13/03/2022,09:42:42,0.330,1.0,0.298,0.005
13/03/2022,09:43:42,0.338,1.0,0.304,0.006
13/03/2022,09:44:42,0.339,1.0,0.309,0.005
13/03/2022,09:45:43,0.279,1.0,0.315,0.006
13/03/2022,09:46:42,0.346,1.0,0.32,0.005
13/03/2022,09:47:42,0.350,1.0,0.326,0.006
13/03/2022,09:48:42,0.283,1.0,0.332,0.006
13/03/2022,09:49:43,0.333,1.0,0.337,0.005
13/03/2022,09:50:51,0.354,1.0,0.343,0.006
13/03/2022,09:51:42,0.301,1.0,0.347,0.004
13/03/2022,09:52:42,0.355,1.0,0.353,0.006
13/03/2022,09:53:42,0.363,1.0,0.359,0.006
13/03/2022,09:54:42,0.296,1.0,0.364,0.005
13/03/2022,09:55:42,0.369,1.0,0.369,0.005
13/03/2022,09:56:42,0.283,1.0,0.375,0.006
13/03/2022,09:57:42,0.278,1.0,0.38,0.005
13/03/2022,09:58:43,0.273,1.0,0.385,0.005
13/03/2022,09:59:42,0.264,1.0,0.389,0.004
13/03/2022,10:00:51,0.266,1.0,0.394,0.005
13/03/2022,10:01:42,0.284,1.0,0.398,0.004
13/03/2022,10:02:42,0.272,1.0,0.403,0.005
13/03/2022,10:03:50,0.261,1.0,0.408,0.005
13/03/2022,10:04:42,0.266,1.0,0.412,0.004
13/03/2022,10:05:42,0.292,1.0,0.416,0.004
13/03/2022,10:06:50,0.294,1.0,0.422,0.006
13/03/2022,10:07:42,0.384,1.0,0.427,0.005
13/03/2022,10:08:42,0.409,1.0,0.433,0.006
13/03/2022,10:09:33,0.342,1.0,0.438,0.005
13/03/2022,10:10:43,0.421,1.0,0.446,0.008
13/03/2022,10:11:43,0.382,1.0,0.453,0.007
13/03/2022,10:12:42,0.424,1.0,0.459,0.006
13/03/2022,10:13:51,0.429,1.0,0.467,0.008
13/03/2022,10:14:42,0.428,1.0,0.473,0.006
13/03/2022,10:15:50,0.413,1.0,0.482,0.009
13/03/2022,10:16:42,0.428,1.0,0.488,0.006
13/03/2022,10:17:51,0.455,1.0,0.496,0.008
13/03/2022,10:18:42,0.458,1.0,0.502,0.006
13/03/2022,10:19:42,0.458,1.0,0.51,0.008
13/03/2022,10:20:50,0.382,1.0,0.518,0.008
13/03/2022,10:21:42,0.321,1.0,0.523,0.005